TimeHST,TemperatureF,Dew PointF,Humidity,Sea Level PressureIn,VisibilityMPH,Wind Direction,Wind SpeedMPH,Gust SpeedMPH,PrecipitationIn,Events,Conditions,WindDirDegrees,DateUTC
12:16 AM,41.0,33.8,76,29.60,10.0,SW,33.4,43.7,N/A,,Overcast,230,2012-12-12 10:16:00
12:36 AM,39.2,33.8,81,29.61,10.0,SW,34.5,43.7,N/A,,Overcast,230,2012-12-12 10:36:00
12:56 AM,41.0,33.8,76,29.63,10.0,WSW,27.6,40.3,N/A,,Mostly Cloudy,240,2012-12-12 10:56:00
1:16 AM,41.0,33.8,76,29.63,10.0,WSW,31.1,41.4,N/A,,Overcast,240,2012-12-12 11:16:00
1:36 AM,41.0,33.8,76,29.63,10.0,WSW,28.8,38.0,N/A,,Overcast,240,2012-12-12 11:36:00
1:56 AM,41.0,33.8,76,29.64,10.0,WSW,25.3,38.0,N/A,,Overcast,240,2012-12-12 11:56:00
2:16 AM,39.2,33.8,81,29.64,10.0,WSW,26.5,34.5,N/A,,Overcast,240,2012-12-12 12:16:00
2:36 AM,39.2,33.8,81,29.63,10.0,SW,24.2,38.0,N/A,,Overcast,230,2012-12-12 12:36:00
2:56 AM,41.0,33.8,76,29.64,10.0,SW,35.7,46.0,N/A,,Overcast,230,2012-12-12 12:56:00
3:16 AM,41.0,33.8,76,29.64,10.0,SW,32.2,43.7,N/A,,Mostly Cloudy,230,2012-12-12 13:16:00
3:36 AM,41.0,33.8,76,29.64,10.0,SW,33.4,42.6,N/A,,Overcast,230,2012-12-12 13:36:00
3:56 AM,41.0,33.8,76,29.65,10.0,SW,35.7,44.9,N/A,,Mostly Cloudy,220,2012-12-12 13:56:00
4:16 AM,41.0,33.8,76,29.67,10.0,SW,26.5,40.3,N/A,,Overcast,220,2012-12-12 14:16:00
4:36 AM,41.0,33.8,76,29.66,10.0,SW,31.1,42.6,N/A,,Mostly Cloudy,230,2012-12-12 14:36:00
4:56 AM,41.0,32.0,70,29.67,10.0,WSW,27.6,41.4,N/A,,Scattered Clouds,240,2012-12-12 14:56:00
5:16 AM,41.0,33.8,76,29.67,10.0,WSW,24.2,39.1,N/A,,Mostly Cloudy,240,2012-12-12 15:16:00
5:36 AM,41.0,32.0,70,29.66,10.0,SW,26.5,39.1,N/A,,Mostly Cloudy,230,2012-12-12 15:36:00
5:56 AM,41.0,33.8,76,29.67,10.0,SW,23.0,31.1,N/A,,Mostly Cloudy,230,2012-12-12 15:56:00
6:16 AM,39.2,33.8,81,29.67,10.0,WSW,26.5,32.2,N/A,,Overcast,240,2012-12-12 16:16:00
6:36 AM,39.2,32.0,75,29.67,10.0,WSW,26.5,33.4,N/A,,Mostly Cloudy,240,2012-12-12 16:36:00
6:56 AM,41.0,33.8,76,29.67,9.0,SW,24.2,36.8,N/A,,Mostly Cloudy,230,2012-12-12 16:56:00
7:16 AM,41.0,33.8,76,29.67,10.0,SW,28.8,38.0,N/A,,Mostly Cloudy,230,2012-12-12 17:16:00
7:36 AM,41.0,33.8,76,29.66,10.0,SW,25.3,36.8,N/A,,Mostly Cloudy,230,2012-12-12 17:36:00
7:56 AM,39.2,33.8,81,29.67,5.0,WSW,17.3,34.5,0.01,,Overcast,240,2012-12-12 17:56:00
8:16 AM,39.2,35.6,87,29.67,10.0,SW,20.7,28.8,N/A,,Overcast,230,2012-12-12 18:16:00
8:36 AM,39.2,35.6,87,29.66,8.0,SW,21.9,-,N/A,,Mostly Cloudy,230,2012-12-12 18:36:00
8:56 AM,41.0,35.6,81,29.66,5.0,SW,25.3,36.8,0.01,,Overcast,230,2012-12-12 18:56:00
9:16 AM,39.2,35.6,87,29.66,8.0,SW,20.7,31.1,0.01,,Overcast,230,2012-12-12 19:16:00
9:36 AM,41.0,35.6,81,29.66,10.0,SW,28.8,36.8,0.01,,Overcast,230,2012-12-12 19:36:00
9:56 AM,42.8,33.8,70,29.65,10.0,SW,28.8,39.1,0.01,,Mostly Cloudy,230,2012-12-12 19:56:00
10:16 AM,42.8,33.8,70,29.66,10.0,SW,29.9,43.7,N/A,,Overcast,230,2012-12-12 20:16:00
10:36 AM,42.8,35.6,76,29.65,10.0,SW,40.3,49.5,N/A,,Mostly Cloudy,230,2012-12-12 20:36:00
10:56 AM,41.0,35.6,81,29.66,10.0,SW,32.2,40.3,N/A,,Mostly Cloudy,230,2012-12-12 20:56:00
11:16 AM,41.0,35.6,81,29.66,10.0,SW,33.4,40.3,N/A,,Overcast,230,2012-12-12 21:16:00
11:36 AM,41.0,35.6,81,29.66,10.0,SW,31.1,39.1,N/A,,Mostly Cloudy,230,2012-12-12 21:36:00
11:56 AM,41.0,35.6,81,29.66,10.0,WSW,33.4,41.4,N/A,,Mostly Cloudy,240,2012-12-12 21:56:00
12:16 PM,42.8,35.6,76,29.67,10.0,SW,35.7,43.7,N/A,,Overcast,230,2012-12-12 22:16:00
12:36 PM,41.0,35.6,81,29.67,10.0,WSW,34.5,43.7,N/A,,Overcast,240,2012-12-12 22:36:00
12:56 PM,42.8,35.6,76,29.67,10.0,WSW,31.1,42.6,N/A,,Overcast,240,2012-12-12 22:56:00
1:16 PM,42.8,35.6,76,29.67,10.0,SW,32.2,43.7,N/A,,Mostly Cloudy,230,2012-12-12 23:16:00
1:36 PM,41.0,37.4,87,29.67,4.0,SW,32.2,38.0,N/A,,Overcast,220,2012-12-12 23:36:00
1:56 PM,41.0,35.6,81,29.68,10.0,WSW,32.2,40.3,N/A,,Mostly Cloudy,240,2012-12-12 23:56:00
2:16 PM,41.0,35.6,81,29.68,10.0,WSW,28.8,38.0,N/A,,Overcast,240,2012-12-13 00:16:00
2:36 PM,41.0,35.6,81,29.69,10.0,WSW,24.2,29.9,N/A,,Overcast,250,2012-12-13 00:36:00
2:56 PM,42.8,35.6,76,29.69,10.0,WSW,24.2,35.7,N/A,,Overcast,240,2012-12-13 00:56:00
3:16 PM,41.0,35.6,81,29.68,10.0,SW,24.2,31.1,N/A,,Mostly Cloudy,230,2012-12-13 01:16:00
3:36 PM,41.0,35.6,81,29.68,10.0,SW,20.7,29.9,N/A,,Overcast,230,2012-12-13 01:36:00
3:56 PM,39.2,33.8,81,29.69,10.0,SW,26.5,33.4,N/A,,Mostly Cloudy,230,2012-12-13 01:56:00
4:16 PM,39.2,33.8,81,29.69,10.0,WSW,20.7,28.8,N/A,,Mostly Cloudy,240,2012-12-13 02:16:00
4:36 PM,39.2,33.8,81,29.68,10.0,WSW,17.3,-,N/A,,Scattered Clouds,240,2012-12-13 02:36:00
4:56 PM,39.2,33.8,81,29.69,10.0,WSW,15.0,21.9,N/A,,Scattered Clouds,240,2012-12-13 02:56:00
5:16 PM,39.2,33.8,81,29.70,10.0,WSW,18.4,-,N/A,,Scattered Clouds,240,2012-12-13 03:16:00
5:36 PM,39.2,32.0,75,29.69,10.0,WSW,17.3,-,N/A,,Clear,240,2012-12-13 03:36:00
5:56 PM,37.4,32.0,81,29.70,10.0,WSW,17.3,23.0,N/A,,Clear,240,2012-12-13 03:56:00
6:16 PM,39.2,33.8,81,29.70,10.0,WSW,17.3,-,N/A,,Scattered Clouds,240,2012-12-13 04:16:00
6:36 PM,39.2,33.8,81,29.69,10.0,WSW,17.3,25.3,N/A,,Scattered Clouds,250,2012-12-13 04:36:00
6:56 PM,37.4,32.0,81,29.69,10.0,WSW,18.4,25.3,N/A,,Partly Cloudy,240,2012-12-13 04:56:00
7:16 PM,37.4,32.0,81,29.70,10.0,WSW,12.7,20.7,N/A,,Partly Cloudy,250,2012-12-13 05:16:00
7:36 PM,37.4,32.0,81,29.70,10.0,WSW,11.5,-,N/A,,Clear,250,2012-12-13 05:36:00
7:56 PM,37.4,30.2,75,29.69,10.0,WSW,11.5,21.9,N/A,,Clear,240,2012-12-13 05:56:00
8:16 PM,37.4,33.8,87,29.70,10.0,WSW,9.2,-,N/A,,Scattered Clouds,240,2012-12-13 06:16:00
8:36 PM,37.4,32.0,81,29.70,10.0,SW,11.5,-,N/A,,Partly Cloudy,230,2012-12-13 06:36:00
8:56 PM,37.4,32.0,81,29.69,10.0,WSW,13.8,-,N/A,,Partly Cloudy,240,2012-12-13 06:56:00
9:16 PM,37.4,32.0,81,29.68,10.0,SW,13.8,-,N/A,,Partly Cloudy,230,2012-12-13 07:16:00
9:36 PM,37.4,32.0,81,29.68,10.0,SW,13.8,-,N/A,,Partly Cloudy,220,2012-12-13 07:36:00
9:56 PM,37.4,30.2,75,29.68,10.0,SW,13.8,-,N/A,,Scattered Clouds,230,2012-12-13 07:56:00
10:16 PM,37.4,30.2,75,29.67,10.0,WSW,6.9,-,N/A,,Overcast,240,2012-12-13 08:16:00
10:36 PM,35.6,30.2,81,29.67,10.0,SW,9.2,-,N/A,,Mostly Cloudy,220,2012-12-13 08:36:00
10:56 PM,35.6,30.2,81,29.66,10.0,SW,11.5,-,N/A,,Mostly Cloudy,230,2012-12-13 08:56:00
11:16 PM,37.4,32.0,81,29.65,10.0,SW,12.7,-,N/A,,Scattered Clouds,220,2012-12-13 09:16:00
11:36 PM,37.4,32.0,81,29.65,10.0,SW,10.4,-,N/A,,Clear,230,2012-12-13 09:36:00
11:56 PM,35.6,30.2,81,29.65,10.0,SW,6.9,-,N/A,,Clear,230,2012-12-13 09:56:00